Location: Newark
(48.6503°N, 29.5086°E)
Time: 12:14:28
(UTC+00:00)

ISS - Visible Passes

Search period start: 17 September 2019 00:00
Search period end: 27 September 2019 00:00
Orbit: 411 x 421 km, 51.6° (Epoch: 17 September)

Date Brightness Start Highest point End Pass type
(mag) Time Alt. Az. Time Alt. Az. Time Alt. Az.
19 Sep -1.8 17:04:46 10° SSE 17:06:19 13° SE 17:06:22 13° SE visible
19 Sep -0.8 18:39:14 10° SW 18:39:19 11° SW 18:39:19 11° SW visible
20 Sep -3.0 17:50:58 10° SW 17:53:27 36° S 17:53:27 36° S visible
21 Sep -2.7 17:02:52 10° SSW 17:05:46 28° SE 17:07:22 19° E visible
21 Sep -1.5 18:38:59 10° WSW 18:40:17 22° W 18:40:17 22° W visible
22 Sep -4.0 17:50:28 10° WSW 17:53:48 84° SSE 17:54:01 76° E visible
23 Sep -3.7 17:02:03 10° SW 17:05:20 59° SSE 17:07:37 18° ENE visible
23 Sep -1.6 18:38:53 10° W 18:40:31 25° WNW 18:40:31 25° WNW visible
24 Sep -3.5 17:50:16 10° W 17:53:34 61° NNW 17:53:59 54° NNE visible
25 Sep -3.7 17:01:41 10° WSW 17:05:00 77° NNW 17:07:23 18° ENE visible
25 Sep -1.4 18:38:45 10° WNW 18:40:17 24° WNW 18:40:17 24° WNW visible
26 Sep -3.2 17:50:07 10° W 17:53:22 48° N 17:53:37 47° NNE visible
